[[{"header":{"parameterUnit":"m.s-1","parameterCategory":1,"la1":30.2992,"la2":30.254,"lo1":-89.0895,"lo2":-89.0443,"dy":0.0025,"dx":0.0025,"nx":19,"ny":19,"refTime":"2026-05-22T21:00:00:Z","depth":0,"parameterNumber":2,"parameterNumberName":"U-component_of_WINDS"},"data":[0,0,0,-0.5512,-0.5512,-0.5478,-0.5478,-0.5433,-0.5433,0,0,0,0,0,0,0,0,0,0,0,-0.5524,-0.5523,-0.5512,-0.5512,-0.5478,-0.5478,-0.5433,-0.5433,0,0,0,0,0,0,0,0,0,0,0,-0.5524,-0.5523,-0.5523,-0.5511,-0.5478,-0.5477,-0.5433,-0.5459,0,0,0,0,0,0,0,0,0,0,-0.5492,-0.5504,-0.5523,-0.5523,-0.5511,-0.5478,-0.5477,-0.546,-0.5457,-0.5448,0,-0.5443,0,-0.5437,-0.543,-0.543,0,0,0,-0.551,-0.5506,-0.5496,-0.5523,-0.5511,-0.5478,-0.5493,-0.5458,-0.5455,-0.5445,-0.5442,-0.544,-0.5436,-0.5429,-0.5429,-0.5387,-0.5387,0,0,-0.5512,-0.5518,-0.5498,-0.5494,-0.5501,-0.5494,-0.5492,-0.5456,-0.5453,-0.5442,-0.5439,-0.5436,-0.5429,-0.5429,-0.5388,-0.5387,0,0,0,-0.5518,-0.5519,-0.551,-0.5496,-0.549,-0.5493,-0.549,-0.5455,-0.5451,-0.5439,-0.5435,-0.5429,-0.5428,-0.5388,-0.5388,-0.5387,0,0,0,-0.5519,-0.5523,-0.5511,-0.5514,-0.5491,-0.5472,-0.549,-0.5454,-0.545,-0.5435,-0.5429,-0.5428,-0.5388,-0.5388,-0.5387,-0.5385,0,0,0,-0.5525,-0.5523,-0.5519,-0.5514,-0.55,-0.5473,-0.5467,-0.5453,-0.5447,-0.543,-0.5428,-0.5388,-0.5388,-0.5388,-0.5386,-0.5376,0,0,0,-0.5533,-0.5519,-0.5519,-0.5502,-0.55,-0.5473,-0.5468,-0.5447,-0.5431,-0.5429,-0.5388,-0.5388,-0.5388,-0.5386,-0.5376,-0.5368,-0.5366,0,0,-0.5518,-0.5517,-0.5506,-0.5506,-0.548,-0.5478,-0.5452,-0.5431,-0.5424,-0.5399,-0.5398,-0.5387,-0.5386,-0.5376,-0.535,-0.5348,0,0,0,-0.5504,-0.5496,-0.5488,-0.5474,-0.5459,-0.5446,-0.5429,-0.5421,-0.5401,-0.5413,-0.5381,-0.538,-0.5373,-0.5369,-0.5368,-0.5361,-0.5386,-0.5386,-0.5386,-0.5491,-0.5483,-0.5464,-0.5451,-0.5438,-0.5421,-0.5408,-0.5394,-0.539,-0.5382,-0.5375,-0.536,-0.5355,-0.5354,-0.5348,-0.537,-0.537,-0.537,-0.537,-0.5468,-0.5456,-0.545,-0.5429,-0.542,-0.5402,-0.5384,-0.5381,-0.5362,-0.5365,-0.5359,-0.5363,-0.5352,-0.5346,-0.537,-0.537,-0.537,-0.537,-0.537,-0.5459,-0.5451,-0.5443,-0.5422,-0.5405,-0.5392,-0.5374,-0.5366,-0.5358,-0.5352,-0.5343,-0.5343,-0.5341,-0.5348,-0.5348,-0.5348,-0.5348,-0.5348,-0.5348,-0.5452,-0.5443,-0.543,-0.5412,-0.5401,-0.5386,-0.5368,-0.5357,-0.5342,-0.5337,-0.5337,-0.5332,-0.5353,-0.5358,-0.5347,-0.5347,-0.5347,-0.5347,-0.5348,-0.5432,-0.5435,-0.5415,-0.5404,-0.5382,-0.5366,-0.5356,-0.5333,-0.5322,-0.5313,-0.5309,-0.5327,-0.5325,-0.5326,-0.533,-0.5312,-0.5312,-0.5312,-0.5312,-0.5424,-0.5422,-0.5399,-0.5382,-0.5365,-0.5354,-0.5328,-0.5313,-0.5298,-0.529,-0.5291,-0.5296,-0.5298,-0.5295,-0.5297,-0.53,-0.5275,-0.5275,-0.5275,-0.541,-0.5407,-0.5388,-0.5374,-0.5356,-0.534,-0.5315,-0.5295,-0.5278,-0.5274,-0.5284,-0.5285,-0.5293,-0.5296,-0.5292,-0.5296,-0.5302,0,0]},{"header":{"parameterUnit":"m.s-1","parameterCategory":1,"la1":30.2992,"la2":30.254,"lo1":-89.0895,"lo2":-89.0443,"dy":0.0025,"dx":0.0025,"nx":19,"ny":19,"refTime":"2026-05-22T21:00:00:Z","depth":0,"parameterNumber":3,"parameterNumberName":"V-component_of_WINDS"},"data":[0,0,0,-0.0985,-0.0982,-0.0869,-0.0869,-0.0742,-0.0741,0,0,0,0,0,0,0,0,0,0,0,-0.103,-0.1029,-0.0985,-0.0982,-0.0869,-0.0869,-0.0742,-0.0741,0,0,0,0,0,0,0,0,0,0,0,-0.103,-0.103,-0.1029,-0.0982,-0.0869,-0.0869,-0.0742,-0.0821,0,0,0,0,0,0,0,0,0,0,-0.0928,-0.0981,-0.103,-0.1029,-0.0981,-0.087,-0.0869,-0.0825,-0.0816,-0.0801,0,-0.0792,0,-0.0765,-0.0734,-0.0734,0,0,0,-0.0973,-0.0988,-0.0947,-0.1029,-0.098,-0.087,-0.0918,-0.082,-0.081,-0.079,-0.079,-0.0785,-0.0763,-0.0733,-0.0733,-0.0679,-0.0679,0,0,-0.098,-0.1016,-0.0954,-0.0942,-0.0961,-0.0921,-0.0914,-0.0814,-0.0815,-0.0789,-0.0781,-0.0761,-0.0732,-0.0732,-0.0679,-0.0679,0,0,0,-0.1004,-0.102,-0.0981,-0.0948,-0.0926,-0.0918,-0.091,-0.082,-0.0804,-0.078,-0.0759,-0.0732,-0.0731,-0.0679,-0.0679,-0.0723,0,0,0,-0.1007,-0.1034,-0.0985,-0.1005,-0.0928,-0.0872,-0.0919,-0.0811,-0.0799,-0.076,-0.0732,-0.0729,-0.0678,-0.0679,-0.0722,-0.0738,0,0,0,-0.1033,-0.1037,-0.1025,-0.1008,-0.096,-0.0872,-0.0851,-0.0807,-0.0786,-0.0733,-0.0729,-0.0678,-0.0679,-0.072,-0.0736,-0.0735,0,0,0,-0.1071,-0.1065,-0.1026,-0.1011,-0.0962,-0.0901,-0.0851,-0.0803,-0.0763,-0.0731,-0.0678,-0.0679,-0.072,-0.0734,-0.0734,-0.0742,-0.0749,0,0,-0.1084,-0.1068,-0.1056,-0.1018,-0.0974,-0.0915,-0.0877,-0.0805,-0.0767,-0.071,-0.0708,-0.0722,-0.0735,-0.0735,-0.0772,-0.0778,0,0,0,-0.1072,-0.1064,-0.1045,-0.1009,-0.0955,-0.091,-0.0841,-0.0814,-0.0765,-0.0745,-0.072,-0.0727,-0.0725,-0.0728,-0.0732,-0.0729,-0.0681,-0.0681,-0.0681,-0.1141,-0.1093,-0.107,-0.1009,-0.0975,-0.0904,-0.0872,-0.0824,-0.0784,-0.0779,-0.0762,-0.0791,-0.0795,-0.0798,-0.0795,-0.0762,-0.0762,-0.0762,-0.0763,-0.1155,-0.1137,-0.1085,-0.1045,-0.0994,-0.0959,-0.0891,-0.0864,-0.0824,-0.08,-0.0796,-0.0774,-0.0806,-0.0801,-0.0765,-0.0765,-0.0765,-0.0764,-0.0764,-0.1195,-0.1178,-0.1147,-0.1091,-0.1052,-0.099,-0.0954,-0.0908,-0.0865,-0.0861,-0.0839,-0.0838,-0.0832,-0.0853,-0.0854,-0.0854,-0.0854,-0.0854,-0.0854,-0.125,-0.1213,-0.1189,-0.1132,-0.1104,-0.106,-0.0989,-0.0959,-0.0914,-0.0884,-0.0883,-0.0845,-0.0818,-0.0813,-0.0855,-0.0855,-0.0855,-0.0855,-0.0855,-0.1283,-0.1269,-0.1232,-0.1204,-0.1133,-0.1098,-0.104,-0.0984,-0.0952,-0.0936,-0.0898,-0.0886,-0.0867,-0.0862,-0.0858,-0.0909,-0.0909,-0.0909,-0.0909,-0.1318,-0.1304,-0.1256,-0.1214,-0.1167,-0.1111,-0.1071,-0.1016,-0.0956,-0.0934,-0.0919,-0.0909,-0.0907,-0.0888,-0.0884,-0.0879,-0.0934,-0.0934,-0.0934,-0.1336,-0.1315,-0.129,-0.1233,-0.1174,-0.1125,-0.1086,-0.1038,-0.0967,-0.0934,-0.0915,-0.0914,-0.0897,-0.0894,-0.0861,-0.0854,-0.0844,0,0]}]]